Weather History for Monarch Pass, CO

Change the Weather History Date:

Tuesday, March 12, 2013

  Actual Average (KGUC) Record (KGUC)
Temperature  
Mean Temperature 22 °F -  
Max Temperature 26 °F 39 °F 60 °F (2007)
Min Temperature 17 °F 14 °F 1 °F (2008)
Degree Days  
Heating Degree Days 44    
Moisture  
Dew Point 17 °F    
Average Humidity 89    
Maximum Humidity 100    
Minimum Humidity 74    
Precipitation  
Precipitation 0.00 in - - ()
Sea Level Pressure  
Sea Level Pressure 30.33 in    
Wind  
Wind Speed 37 mph (West)    
Max Wind Speed 46 mph    
Max Gust Speed 54 mph    
Averages and records for this station are not official NWS values.
T = Trace of Precipitation, MM = Missing Value Source: NWS Daily Summary

Daily Weather History Graph

Daily Weather History Graph

Search for Another Location

Airport:

Trip Planner

Search our weather history database for the weather conditions in past years. The results will help you decide how hot, cold, wet, or windy it might be!

Date:

Astronomy

Mar. 12, 2013 Rise Set
Actual Time 7:20 AM MDT 7:09 PM MDT
Civil Twilight 6:54 AM MDT 7:36 PM MDT
Nautical Twilight 6:23 AM MDT 8:06 PM MDT
Astronomical Twilight 5:52 AM MDT 8:37 PM MDT
Moon 7:29 AM MDT (3/12) 8:26 PM MDT (3/12)
Length of Visible Light 12h 41m
Length of Day
11h 49m
New Moon, 1% of the Moon is Illuminated
Mar 12
New Moon
Mar 19
First Quarter
Mar 27
Full
Apr 2
Last Quarter
Apr 10
New

Hourly Weather History & Observations

Time (MDT) Temp. Windchill Dew Point Humidity Pressure Visibility Wind Dir Wind Speed Gust Speed Precip Events Conditions
12:19 AM 17.6 °F -4.3 °F 15.8 °F 93% 30.22 in - West 40.3 mph 54.1 mph N/A   Overcast
12:39 AM 19.4 °F - 15.8 °F 86% 30.21 in - North - - N/A   Overcast
12:59 AM 17.6 °F - 15.8 °F 93% 30.22 in - North - - N/A   Overcast
1:19 AM 17.6 °F - 15.8 °F 93% 30.23 in - North - - N/A   Overcast
1:39 AM 17.6 °F - 15.8 °F 93% 30.23 in - North - - N/A   Overcast
1:59 AM 17.6 °F -4.5 °F 15.8 °F 93% 30.23 in - West 41.4 mph - N/A   Overcast
2:19 AM 17.6 °F - 15.8 °F 93% 30.23 in - North - - N/A   Overcast
2:39 AM 17.6 °F - 15.8 °F 93% 30.23 in - North - - N/A   Overcast
2:59 AM 17.6 °F - 15.8 °F 93% 30.23 in - North - - N/A   Overcast
3:19 AM 17.6 °F - 15.8 °F 93% 30.22 in - North - - N/A   Overcast
3:39 AM 17.6 °F - 15.8 °F 93% 30.22 in - North - - N/A   Overcast
3:59 AM 17.6 °F -3.3 °F 15.8 °F 93% 30.22 in - South 35.7 mph - N/A   Overcast
4:19 AM 17.6 °F - 15.8 °F 93% 30.23 in - North - - N/A   Overcast
4:39 AM 17.6 °F - 15.8 °F 93% 30.23 in - North - - N/A   Overcast
4:59 AM 17.6 °F - 15.8 °F 93% 30.24 in - North - - N/A   Overcast
5:19 AM 17.6 °F - 14.0 °F 86% 30.25 in - North - - N/A   Overcast
5:39 AM 17.6 °F - 14.0 °F 86% 30.25 in - North - - N/A   Mostly Cloudy
5:59 AM 17.6 °F - 14.0 °F 86% 30.25 in - North - - N/A   Mostly Cloudy
6:19 AM 17.6 °F - 14.0 °F 86% 30.25 in - North - - N/A   Mostly Cloudy
6:39 AM 17.6 °F - 14.0 °F 86% 30.25 in - North - - N/A   Mostly Cloudy
6:59 AM 17.6 °F - 14.0 °F 86% 30.26 in - North - - N/A   Mostly Cloudy
7:19 AM 17.6 °F - 14.0 °F 86% 30.27 in - North - - N/A   Overcast
7:39 AM 17.6 °F - 14.0 °F 86% 30.27 in - North - - N/A   Overcast
7:59 AM 17.6 °F - 14.0 °F 86% 30.27 in - North - - N/A   Overcast
8:19 AM 17.6 °F - 14.0 °F 86% 30.28 in - North - - N/A   Overcast
8:39 AM 17.6 °F - 14.0 °F 86% 30.29 in - North - - N/A   Overcast
8:59 AM 17.6 °F - 14.0 °F 86% 30.30 in - North - - N/A   Overcast
9:19 AM 17.6 °F - 15.8 °F 93% 30.32 in - North - - N/A   Overcast
9:39 AM 19.4 °F - 15.8 °F 86% 30.31 in - North - - N/A   Overcast
9:59 AM 19.4 °F - 15.8 °F 86% 30.31 in - North - - N/A   Overcast
10:19 AM 19.4 °F - 17.6 °F 93% 30.32 in - North - - N/A   Overcast
10:39 AM 19.4 °F - 17.6 °F 93% 30.33 in - North - - N/A   Overcast
10:59 AM 19.4 °F - 17.6 °F 93% 30.34 in - North - - N/A   Overcast
11:19 AM 19.4 °F - 17.6 °F 93% 30.35 in - North - - N/A   Overcast
11:39 AM 19.4 °F - 17.6 °F 93% 30.35 in - North - - N/A   Overcast
11:58 AM 19.4 °F -1.3 °F 17.6 °F 93% 30.34 in - West 38.0 mph - N/A   Overcast
12:19 PM 21.2 °F -0.3 °F 19.4 °F 93% 30.34 in - West 46.0 mph 49.5 mph N/A   Unknown
12:39 PM 21.2 °F -0.3 °F 19.4 °F 93% 30.34 in - West 46.0 mph 51.8 mph N/A   Overcast
12:57 PM 21.2 °F 0.1 °F 19.4 °F 93% 30.33 in - West 43.7 mph 54.1 mph N/A   Mostly Cloudy
1:19 PM 21.2 °F -0.1 °F 19.4 °F 93% 30.34 in - West 44.9 mph 48.3 mph N/A   Mostly Cloudy
1:38 PM 23.0 °F 2.8 °F 21.2 °F 93% 30.35 in - West 42.6 mph 50.6 mph N/A   Unknown
1:59 PM 23.0 °F 4.6 °F 21.2 °F 93% 30.36 in - West 33.4 mph 40.3 mph N/A   Mostly Cloudy
2:16 PM 21.2 °F 3.0 °F 21.2 °F 100% 30.37 in - West 29.9 mph 43.7 mph N/A   Mostly Cloudy
2:39 PM 23.0 °F 7.2 °F 21.2 °F 93% 30.38 in - WSW 23.0 mph 39.1 mph N/A   Overcast
2:59 PM 23.0 °F 4.6 °F 21.2 °F 93% 30.39 in - West 33.4 mph 40.3 mph N/A   Unknown
3:17 PM 23.0 °F 4.6 °F 21.2 °F 93% 30.38 in - West 33.4 mph 42.6 mph N/A   Unknown
3:39 PM 23.0 °F 3.2 °F 21.2 °F 93% 30.38 in - West 40.3 mph 43.7 mph N/A   Unknown
3:59 PM 24.8 °F 6.4 °F 21.2 °F 86% 30.38 in - West 36.8 mph 42.6 mph N/A   Unknown
4:19 PM 24.8 °F 6.2 °F 19.4 °F 80% 30.39 in - West 38.0 mph 43.7 mph N/A   Scattered Clouds
4:39 PM 24.8 °F 6.4 °F 19.4 °F 80% 30.39 in - West 36.8 mph 41.4 mph N/A   Clear
4:59 PM 24.8 °F 7.3 °F 19.4 °F 80% 30.40 in - West 32.2 mph 36.8 mph N/A   Clear
5:19 PM 26.6 °F 10.0 °F 19.4 °F 74% 30.39 in - West 31.1 mph 34.5 mph N/A   Clear
5:39 PM 24.8 °F 7.1 °F 19.4 °F 80% 30.40 in - West 33.4 mph 39.1 mph N/A   Clear
5:59 PM 24.8 °F 7.6 °F 19.4 °F 80% 30.39 in - West 31.1 mph 38.0 mph N/A   Scattered Clouds
6:19 PM 23.0 °F 4.6 °F 19.4 °F 86% 30.40 in - West 33.4 mph 40.3 mph N/A   Scattered Clouds
6:39 PM 23.0 °F 4.1 °F 19.4 °F 86% 30.40 in - West 35.7 mph 43.7 mph N/A   Scattered Clouds
6:59 PM 23.0 °F 2.6 °F 19.4 °F 86% 30.40 in - West 43.7 mph 47.2 mph N/A   Unknown
7:19 PM 23.0 °F 4.1 °F 19.4 °F 86% 30.41 in - West 35.7 mph 46.0 mph N/A   Unknown
7:39 PM 21.2 °F 2.4 °F 19.4 °F 93% 30.42 in - West 32.2 mph - N/A   Unknown
7:59 PM 21.2 °F 3.0 °F 19.4 °F 93% 30.43 in - West 29.9 mph - N/A   Unknown
8:19 PM 21.2 °F 2.7 °F 19.4 °F 93% 30.44 in - West 31.1 mph - N/A   Unknown
8:39 PM 21.2 °F 3.5 °F 19.4 °F 93% 30.45 in - West 27.6 mph - N/A   Unknown
8:59 PM 21.2 °F 4.2 °F 17.6 °F 86% 30.44 in - WSW 25.3 mph - N/A   Unknown
9:19 PM 21.2 °F 3.3 °F 17.6 °F 86% 30.44 in - West 28.8 mph - N/A   Unknown
9:39 PM 21.2 °F 3.5 °F 17.6 °F 86% 30.44 in - West 27.6 mph - N/A   Unknown
9:59 PM 21.2 °F 3.0 °F 17.6 °F 86% 30.43 in - West 29.9 mph - N/A   Unknown
10:19 PM 21.2 °F 1.4 °F 17.6 °F 86% 30.43 in - West 36.8 mph 40.3 mph N/A   Unknown
10:39 PM 21.2 °F 1.9 °F 17.6 °F 86% 30.45 in - West 34.5 mph - N/A   Unknown
10:59 PM 21.2 °F 1.4 °F 17.6 °F 86% 30.45 in - West 36.8 mph - N/A   Unknown
11:59 PM 19.4 °F - 15.8 °F 86% 30.45 in - North - - N/A   Unknown